Showing default

RESURS O1, 23342

Orbit data source: Space-Track

RESURS O1, 23342 is a payload satellite owned by Priroda (CIS) in SSO that was launched on Fri, 04 Nov 1994 UTC via a ZENIT-2 launch vehicle from the Tyuratam Missile And Space Complex (TTMTR). Payload-class satellites include a variety of spacecraft equipped with specific instruments for various scientific and technological missions. These include communications satellites like Starlink; space stations such as the ISS; scientific satellites like the Hubble; Earth observation satellites from companies like Planet Labs, Umbra, and HawkEye 360; GPS; miniature CubeSats for education and research; and military/defense satellites.

Loading next visibility...
Identifier
23342, 1994-074A
Orbit
SSO
Country
Flag of CISCIS
Related business
Manufacturer
VNIIEM
Mission
Civil Imaging
Bus & Motor
RESURS-O, Unknown motor
Mass
1,900 kg wet, 1,900 kg dry
Launch date (UTC)
1994-11-04 (31 years ago)
Launch vehicle
ZENIT-2
Launch site
Tyuratam Missile And Space Complex (TTMTR)
Object type
Payload
Rocket body
Debris
Shape & HBR
Cyl + 2 Pan, 5.8 m
Radar Cross Section
11.656 m², Large (>1 m²)

Expand to show TLE details & history
Last TLE update: 8 hours ago

TLE from 8 hours ago
0 RESURS O1
1 23342U 94074A   26125.08992081  .00000598  00000-0  76024-4 0  9996
2 23342  97.6649 145.2064 0001280 114.8884 245.2465 14.85032404697533
Epoch: 2026-05-05T02:09Z
TLE epoch observation values (Epoch: 2026-05-05T02:09:29.157Z)
Latitude
-0°
Longitude
-110.13485°
Altitude
616.894 km
Speed
7.55 km/s
True Right ascension
09h 40m 49s
True Declination
0° 00' 00"
Sunlit
Object was in daylight at epoch
Visualization orbit readout
Latitude
Unknown
Longitude
Unknown
Altitude
Unknown
Speed
Unknown
Apparent Right ascension
Unknown
Apparent Declination
Unknown
Sunlit
N/A
Visualization observer readout
Local Sidereal Time
17:54:58
Azimuth
Unknown
Elevation
Unknown
Doppler factor
Unknown
Orbital elements
Apogee altitude
611.402 km
Perigee altitude
609.613 km
Semi-major axis
6,988.645 km
Eccentricity
0.00013
Inclination
97.6649°
RAAN
145.2064°
Arg. of periapsis
114.8884°
True anomaly
245.23318°
Mean anomaly
245.2465°
Eccentric anomaly
245.23984°
Mean motion
3.71496 °/min
Orbital period
96.91 mins
BSTAR
0.000076024
Loading maneuver chart data...
Computing Atmospheric mass density...

Documentation

Showing up to 5 results
|